Flag Weather past 2 weeks in Saalfeld/Saale, Thuringia, Germany

Now
36 °F

Clear.


Feels Like: 30 °F
Forecast: 27 / 40 °F
Wind: 7 mph from East

Location: Erfurt-Bindersleben

Current Time: Nov 27, 2014 at 5:15:33 PM

Latest Report: Nov 27, 2014 at 4:50 PM


Visibility: 10 mi

Pressure: 29.86 "Hg

Humidity: 87%

Dew point: 32 °F

Location of Saalfeld/SaaleLocation

Historic Weather in Saalfeld/Saale — Graph

°F

Saalfeld/Saale temperature yesterday

Maximum temperature yesterday: 36 °F (at 12:20 AM)
Minimum temperature yesterday: 27 °F (at 7:50 AM)
Average temperature yesterday: 31 °F

Past Weeks' High & Low Weather Summary

 TemperatureHumidityPressure
High54 °F (Nov 14, 1:50 PM)100% (Nov 12, 4:20 PM)30.33 "Hg (Nov 12, 4:20 PM)
Low27 °F (Nov 26, 7:50 AM)71% (Nov 23, 11:20 PM)29.50 "Hg (Nov 16, 4:20 AM)
Average41 °F96%29.99 "Hg
* Reported Nov 12 4:20 PM — Nov 27 4:20 PM, Saalfeld/Saale, Weather by CustomWeather, © 2014

Note: Actual official high and low records may vary slightly from our data, if they occured in-between our weather recording intervals... More about our weather records

Advertising

Saalfeld/Saale weather history for previous 24 hours

 ConditionsComfort  
Time TempWeatherWind HumidityBarometerVisibility
4:20 PM
Nov 27
36 °FClear.6 mph87%29.86 "Hg10 mi
3:50 PM37 °FSunny.6 mph81%29.86 "Hg10 mi
3:20 PM37 °FSunny.8 mph87%29.86 "Hg10 mi
2:50 PM39 °FSunny.7 mph81%29.86 "Hg10 mi
2:20 PM39 °FPartly sunny.9 mph81%29.86 "HgN/A
1:50 PM39 °FPartly sunny.9 mph81%29.86 "HgN/A
1:20 PM39 °FPartly sunny.9 mph81%29.86 "HgN/A
12:50 PM37 °FScattered clouds.10 mph81%29.86 "HgN/A
12:20 PM37 °FClear.12 mph81%29.86 "Hg6 mi
11:50 AM39 °FClear.13 mph75%29.89 "Hg5 mi
11:20 AM39 °FClear.12 mph81%29.89 "Hg4 mi
10:50 AM37 °FLight fog.8 mph87%29.89 "Hg5 mi
10:20 AM34 °FLight fog.3 mph93%29.89 "Hg5 mi
9:50 AM34 °FLight fog.2 mph93%29.89 "Hg5 mi
9:20 AM34 °FClear.6 mph93%29.92 "Hg5 mi
8:50 AM34 °FClear.6 mph87%29.92 "Hg5 mi
8:20 AM32 °FLight fog.8 mph93%29.92 "Hg5 mi
7:50 AM30 °FLight fog.6 mph100%29.89 "Hg6 mi
7:20 AM30 °FLight fog.5 mph100%29.92 "Hg6 mi
6:50 AM32 °FClear.8 mph93%29.92 "Hg10 mi
6:20 AM32 °FClear.7 mph93%29.92 "Hg10 mi
5:50 AM32 °FClear.6 mph93%29.92 "Hg10 mi
5:20 AM32 °FClear.6 mph93%29.92 "Hg10 mi
4:50 AM34 °FClear.6 mph87%29.92 "Hg10 mi
4:20 AM34 °FClear.7 mph93%29.92 "Hg10 mi
3:50 AM34 °FClear.8 mph93%29.92 "Hg10 mi
3:20 AM36 °FClear.8 mph87%29.95 "Hg10 mi
2:50 AM36 °FClear.8 mph87%29.95 "Hg10 mi
2:20 AM36 °FClear.7 mph87%29.95 "Hg10 mi
1:50 AM36 °FClear.8 mph87%29.95 "Hg10 mi
1:20 AM34 °FClear.7 mph93%29.98 "Hg10 mi
12:50 AM34 °FClear.6 mph87%29.98 "Hg10 mi
12:20 AM32 °FClear.6 mph93%29.98 "Hg10 mi
11:50 PM
Nov 26
32 °FClear.7 mph93%30.01 "Hg10 mi
11:20 PM32 °FClear.8 mph93%30.01 "Hg10 mi
10:50 PM32 °FClear.8 mph93%30.01 "Hg10 mi
10:20 PM32 °FClear.9 mph93%30.01 "Hg10 mi
9:50 PM32 °FClear.7 mph93%30.01 "Hg10 mi
9:20 PM32 °FClear.7 mph100%30.01 "Hg10 mi
8:50 PM32 °FClear.6 mph93%30.01 "Hg10 mi
8:20 PM34 °FClear.6 mph93%30.04 "Hg10 mi
7:50 PM34 °FClear.9 mph93%30.04 "Hg10 mi
7:20 PM34 °FClear.6 mph93%30.04 "Hg10 mi
6:50 PM34 °FClear.7 mph100%30.04 "Hg10 mi
6:20 PM34 °FClear.5 mph100%30.04 "Hg10 mi
5:50 PM34 °FClear.7 mph100%30.04 "Hg10 mi
5:20 PM34 °FClear.9 mph100%30.04 "Hg6 mi
Weather by CustomWeather, © 2014

See weather overviewHow to use our weather pages